Miscellaneous Local Product
Issued by NWS Hastings, NE

Home | Current Version | Previous Version | Text Only | Print | Product List | Glossary On
Versions: 1 2 3 4 5 6 7 8 9 10 11 12 13 14 15 16 17 18 19 20 21 22 23 24 25 26 27 28 29 30 31 32 33 34 35 36 37 38 39 40 41 42 43 44 45 46 47 48 49 50
000
AXUS43 KGID 301502
MISGRI

GID CWA HOURLY WEATHER ROUNDUP
NATIONAL WEATHER SERVICE HASTINGS NE
1000 AM CDT THU OCT 30 2014

NOTE: "FAIR" INDICATES FEW OR NO CLOUDS BELOW 12,000 FEET WITH NO
SIGNIFICANT WEATHER AND/OR OBSTRUCTIONS TO VISIBILITY.

...SOUTH CENTRAL NEBRASKA...

CITY           SKY/WX    TMP DP  RH WIND       PRES   REMARKS
GRAND ISLAND   SUNNY     51  37  58 W12       30.16R
HASTINGS       SUNNY     52  35  52 NW18      30.16R
KEARNEY        SUNNY     50  34  53 W16       30.19R
ORD            SUNNY     49  36  61 NW14G22   30.16R
YORK           SUNNY     50  37  62 NW17      30.12R
AURORA         SUNNY     52  35  52 NW17      30.13R
LEXINGTON      SUNNY     47  32  57 NW14      30.21R
HOLDREGE       SUNNY     51  32  48 NW13      30.20R
HEBRON         SUNNY     53  36  52 NW9       30.13R

...NEBRASKA PANHANDLE...

CITY           SKY/WX    TMP DP  RH WIND       PRES   REMARKS
CHADRON        SUNNY     45  30  55 W10       30.31R
ALLIANCE       SUNNY     39  31  72 W9        30.30R WCI  33
SCOTTSBLUFF    SUNNY     41  29  62 NW7       30.34R
SIDNEY         SUNNY     46  30  53 W10       30.34R

...WESTERN AND NORTH CENTRAL NEBRASKA...

CITY           SKY/WX    TMP DP  RH WIND       PRES   REMARKS
VALENTINE      SUNNY     45  34  65 NW10      30.24R
AINSWORTH      SUNNY     47  35  63 NW16      30.21R
ONEILL         SUNNY     49  38  68 NW17G25   30.15R
BROKEN BOW     SUNNY     52  35  52 NW21G26   30.19R
IMPERIAL       SUNNY     50  29  44 NW13      30.29R
NORTH PLATTE   SUNNY     46  32  58 W10       30.26R
MCCOOK         SUNNY     48  30  49 NW13      30.25R

...EASTERN NEBRASKA...

CITY           SKY/WX    TMP DP  RH WIND       PRES   REMARKS
NORFOLK        SUNNY     51  39  63 NW14G23   30.08R
SO SIOUX CITY  SUNNY     49  37  63 NW12      30.06R
TEKAMAH        SUNNY     51  37  58 NW17      30.05R
COLUMBUS         N/A    N/A N/A N/A MISG        N/A
ALBION         SUNNY     50  37  60 NW12      30.11S
OMAHA EPPLEY   MOSUNNY   50  37  61 N14       30.07R
OFFUTT AFB     SUNNY     50  37  62 NW14      30.05R
MILLARD        SUNNY     50  37  60 NW12      30.06R
LINCOLN        SUNNY     54  39  57 NW9       30.11R
NEBRASKA CITY  SUNNY     51  33  49 N13G22    30.05R
BEATRICE       SUNNY     52  40  63 NW13      30.09S
FALLS CITY     SUNNY     51  40  65 NW12      30.03R

...NORTHERN KANSAS...

CITY           SKY/WX    TMP DP  RH WIND       PRES   REMARKS
GOODLAND       SUNNY     50  28  42 NW14      30.32R
HILL CITY      SUNNY     54  30  40 NW13      30.24R
NORTON         SUNNY     50  27  40 NW14      30.22R
PHILLIPSBURG   SUNNY     55  34  44 NW13      30.20R HAZE
SMITH CENTER   SUNNY     54  36  50 NW9       30.19R
BELOIT         SUNNY     57  36  44 N14       30.14R
HAYS           SUNNY     55  30  38 NW17      30.21R
RUSSELL        SUNNY     54  32  43 NW17      30.18R
CONCORDIA      SUNNY     54  38  54 NW8       30.14R
SALINA         SUNNY     56  37  49 NW16      30.14R
TOPEKA         MOSUNNY   58  41  53 W9        30.05R



USA.gov is the U.S. government's official web portal to all federal, state and local government web resources and services.